KOREASAT 5A

Last updated on Nov. 14, 2019, 4:21 a.m. UTC

1 42984U 17067A   19317.50188338 -.00000344  00000-0  00000+0 0  9996
2 42984   0.0140 281.4545 0001913 303.3046 121.3919  1.00268809  7485
UTC
Height (km)
Latitude
Longitude
Inclination
Orbital Period
UTC large
Height (km)
Speed (km/s)
/
Latitude / Longitude
Inclination (degrees)
Orbital Period (minutes)
Azimuth
Elevation
Range (km)
Doppler Factor
iOS Compass Heading
iOS Angle

Next 30 passes for location: Hong Kong

Rise time Rise Azimuth (degrees) Set time Set Azimuth (degrees) Duration Max altitude (degrees)

No matching passes for this satellites